Location: Bishop�s Knoyle
(51.0728°N, 2.1714°W)
Time: 05:59:24
(UTC+00:00)

CENTAUR R/B - Pass Details

Date: 19 January 2021
Orbit: 742 x 1446 km, 63.5° (Epoch: 02 March)

Event Time Altitude Azimuth Distance (km) Brightness Sun altitude
Rises 17:19:06 0° 312° (NW) 4,223 6.2 -6.6°
Reaches altitude 10° 17:22:21 10° 300° (WNW) 3,346 5.8 -7.0°
Maximum altitude 17:28:42 25° 250° (WSW) 2,508 5.8 -8.0°
Drops below altitude 10° 17:35:24 10° 200° (SSW) 3,547 6.0 -8.9°
Sets 17:39:01 0° 189° (S) 4,527 6.4 -9.5°
